Temperature
18 18 18 18 18 18 17 17 17 17 17 16 16 16 15 15 15 15 15 14 14 14 14 14 14 14 14 14 14 14 14 14 14 14 14 14 14 14 14 14 13 13 13
18 18 18 18 18 17 17 17 17 17 16 16 16 16 15 15 15 15 15 15 14 14 14 14 14 14 14 14 14 14 14 14 14 14 14 14 14 14 14 13 13 13 13
18 18 18 18 18 18 17 17 17 17 16 16 16 16 16 15 15 15 15 15 15 14 14 14 14 14 14 14 14 14 14 13 13 13 13 13 14 13 13 13 13 13 13
19 18 18 18 18 18 18 17 17 17 17 16 16 16 16 15 15 15 15 15 15 14 14 14 14 14 14 14 14 14 14 13 13 13 13 13 13 14 13 13 13 13 13
19 19 19 19 18 18 18 17 17 17 17 16 16 16 16 15 15 15 15 15 15 15 15 14 14 14 14 14 14 14 13 13 13 13 13 13 13 13 13 13 13 13 13
20 20 19 19 18 18 18 17 17 17 17 16 16 16 16 16 16 15 15 15 15 15 15 15 14 14 14 14 14 14 14 13 13 13 13 13 13 13 13 13 12 12 12
20 20 19 19 18 18 18 17 17 17 17 16 16 16 16 16 15 15 15 15 15 15 15 15 14 14 14 14 14 14 14 14 13 13 13 13 13 13 13 12 12 12 12
20 19 19 19 18 18 18 17 17 17 17 17 16 16 16 16 16 16 15 15 15 15 15 15 15 15 15 14 14 13 13 14 14 13 13 14 13 13 13 12 12 12 12
19 19 19 18 18 18 17 17 17 16 16 16 16 16 15 16 15 15 15 15 15 15 15 15 15 15 15 14 13 13 13 13 13 13 13 13 13 13 13 12 12 11 11
18 18 18 18 17 17 17 17 16 16 16 16 15 15 15 15 15 15 15 14 14 14 14 14 14 14 14 14 13 13 13 14 13 13 13 12 12 12 12 12 12 11 11
17 17 17 17 17 16 16 16 16 15 15 15 15 15 15 15 15 15 14 14 14 14 14 14 14 14 14 13 13 13 13 13 13 12 12 12 12 12 12 12 12 12 11
16 16 16 16 16 16 15 15 15 15 15 15 14 14 14 14 14 14 14 14 14 13 13 13 13 13 13 13 13 13 13 13 12 12 12 11 12 12 12 12 12 12 12
16 16 15 15 15 15 14 14 14 14 14 14 14 14 14 14 14 13 13 13 13 12 12 12 12 12 12 12 13 12 12 12 12 11 11 11 12 12 12 12 12 12 12
14 14 14 14 14 14 14 14 13 13 13 13 13 13 13 13 13 13 13 12 12 12 11 11 11 12 12 12 12 12 12 12 11 11 11 11 11 11 12 12 12 12 12
13 13 13 13 13 13 13 13 13 13 13 13 13 13 12 12 12 12 12 12 11 11 11 11 11 11 11 11 11 11 11 11 11 11 11 11 11 11 11 12 12 11 11
12 12 12 13 13 13 13 13 13 12 12 12 12 12 12 12 12 11 11 11 11 11 10 10 10 10 10 10 11 11 11 11 11 11 12 12 11 11 11 11 11 11 11
11 12 12 12 12 12 12 12 12 12 12 12 12 12 12 12 11 11 11 10 10 10 10 10 10 10 10 10 10 11 11 11 11 11 11 11 11 11 11 11 11 10 10
11 11 11 12 12 12 12 12 12 12 12 12 12 12 12 11 11 11 10 10 10 10 10 10 10 10 10 10 10 10 10 10 10 10 10 10 10 10 10 10 10 10 10
11 11 11 11 11 12 12 12 12 12 12 12 12 11 11 11 10 10 10 10 10 9 9 9 9 9 9 9 9 9 9 9 9 9 9 10 10 10 10 10 10 10 10
11 11 11 11 11 11 11 11 11 11 11 11 11 11 10 10 10 10 9 9 9 9 9 9 9 9 8 8 9 9 9 9 9 9 9 9 9 9 9 9 9 9 9
10 10 11 11 11 11 11 11 11 11 11 10 10 10 10 9 9 9 9 9 8 8 8 8 8 8 8 8 8 8 8 8 8 8 8 8 8 8 8 9 9 9 9
10 10 10 10 10 10 10 10 10 10 10 10 9 9 9 9 8 8 8 8 8 8 7 7 7 7 7 7 7 7 7 7 7 7 7 7 8 8 8 8 8 8 8
9 9 10 10 10 10 10 9 9 9 9 8 8 8 8 8 7 7 7 7 7 7 7 6 6 6 6 6 6 6 6 6 6 6 6 7 7 7 7 8 8 8 8
9 9 9 9 9 9 8 8 8 8 7 7 7 7 7 7 6 6 6 6 6 6 6 6 5 5 5 5 5 5 5 6 6 6 6 6 6 6 7 7 7 7 7
8 8 8 8 8 7 7 7 6 6 6 6 6 6 6 5 5 5 5 5 5 5 5 5 5 5 5 5 5 5 5 5 5 5 5 6 6 6 6 6 7 7 7
7 7 7 6 6 6 6 6 5 5 5 5 5 5 4 5 5 4 4 4 4 4 4 4 4 4 4 4 4 4 5 5 5 5 5 6 6 6 6 6 6 7 7
Wind_Speed
12 11 10 10 9 8 7 7 6 5 6 7 7 7 7 7 7 6 6 5 6 5 5 5 4 4 2 3 2 2 3 3 4 4 4 3 1 3 4 6 9 11 13
12 11 10 10 10 10 9 8 8 7 7 7 8 8 8 8 8 8 8 7 6 6 6 5 5 5 5 4 3 4 3 3 3 5 5 5 5 5 5 5 8 11 11
13 12 11 11 10 10 10 9 9 9 8 8 8 8 8 8 8 8 8 7 6 6 6 6 6 6 5 5 4 5 4 5 3 4 5 5 5 5 5 5 7 6 11
13 13 12 12 11 10 9 9 9 9 9 9 9 9 8 8 8 8 8 8 7 6 6 6 6 7 7 6 6 6 6 5 6 6 6 5 5 5 3 4 5 5 6
12 13 12 12 10 10 10 9 9 10 11 9 9 9 9 9 10 10 8 9 8 8 8 7 8 9 9 7 7 5 5 5 5 5 6 5 5 3 3 3 5 5 5
12 12 12 12 12 12 11 10 10 10 9 9 9 9 10 11 12 13 10 7 6 8 8 8 9 9 12 14 14 12 9 8 7 6 6 7 6 5 4 4 4 5 5
8 8 9 10 11 11 12 11 11 10 9 9 9 9 9 9 9 11 12 7 7 7 7 7 10 11 10 10 13 16 16 17 15 10 11 11 9 7 6 6 6 6 7
7 7 7 8 9 8 8 9 9 8 8 8 8 8 8 9 11 12 12 9 8 8 8 9 9 10 11 9 9 10 12 13 15 14 14 14 13 10 9 9 9 8 8
3 3 4 5 6 7 7 7 7 7 7 7 7 8 8 9 12 13 12 7 8 10 10 11 11 11 14 15 11 11 11 11 15 19 20 20 22 20 13 7 8 8 10
2 2 2 1 2 4 5 5 4 5 6 6 7 8 9 9 11 13 13 8 8 9 9 10 14 15 16 15 12 11 13 12 12 13 12 15 17 18 19 14 12 11 11
4 5 4 3 1 1 1 2 2 4 5 6 6 6 7 9 11 15 16 9 9 8 8 7 7 9 12 13 12 11 14 12 10 10 10 10 10 11 12 13 13 13 13
6 5 5 4 2 1 0 1 2 4 4 5 6 6 6 6 8 11 16 15 11 8 7 7 7 8 8 11 11 14 17 13 10 11 11 11 10 10 10 12 13 15 15
7 7 6 5 4 3 2 1 1 2 3 4 4 5 4 3 4 7 11 13 14 10 9 12 13 15 13 11 15 17 14 11 11 12 13 12 11 11 10 9 10 12 14
7 6 4 3 2 2 2 2 2 2 2 3 3 3 3 2 2 1 1 4 8 9 9 11 13 16 15 15 15 13 11 12 13 13 13 12 10 10 10 9 9 9 10
6 5 4 3 2 2 1 1 1 1 0 1 2 3 4 3 1 2 2 3 3 4 5 6 9 9 10 10 10 10 11 11 13 13 12 12 11 10 9 8 9 9 10
5 5 4 3 2 2 1 1 1 2 3 5 5 4 3 4 4 5 6 7 8 6 4 8 10 10 11 11 11 10 10 10 10 10 10 10 11 11 10 9 9 10 11
6 5 5 5 4 4 3 3 2 4 7 8 9 9 9 9 9 10 11 10 10 6 6 10 11 11 11 11 11 11 10 9 8 9 9 9 9 10 10 10 9 9 10
6 4 5 5 5 5 5 5 4 5 3 4 7 10 11 12 13 13 12 7 8 7 8 10 10 9 9 9 9 9 9 9 8 8 9 9 9 9 9 9 9 11 11
7 6 5 5 6 7 6 6 6 5 5 5 5 4 7 10 12 13 8 6 9 9 9 8 8 8 8 8 8 8 9 9 10 9 9 10 9 9 10 10 10 13 12
6 7 7 7 7 7 6 7 7 6 6 6 6 6 4 4 6 7 6 6 8 8 8 8 8 9 9 9 9 9 9 9 10 10 10 9 9 10 11 11 10 10 9
8 8 8 8 7 6 6 7 7 7 8 7 7 7 7 7 8 8 7 6 7 8 8 8 8 8 8 8 9 9 11 9 9 9 9 10 10 9 9 9 9 9 9
9 9 8 9 8 7 8 8 8 8 9 9 8 8 8 7 8 8 8 8 8 7 7 8 9 8 8 9 9 9 10 10 10 10 10 10 10 10 10 9 9 9 9
10 10 10 9 8 9 9 9 9 9 9 10 10 9 8 8 9 9 9 9 8 8 8 7 8 10 9 7 8 9 9 9 10 11 10 10 10 10 9 9 10 11 10
10 10 10 10 9 9 9 9 9 10 10 10 9 9 9 8 9 10 10 9 9 9 8 8 9 12 14 11 8 9 8 8 10 10 12 11 11 10 10 9 9 10 9
10 10 10 10 10 9 9 9 10 10 11 10 10 10 10 10 10 10 9 9 10 10 11 11 9 10 13 15 13 11 10 10 10 10 10 10 12 12 11 11 9 9 9
9 9 9 9 9 9 9 9 9 10 10 10 10 10 10 11 11 10 10 9 10 10 10 10 11 13 14 12 12 12 11 11 11 11 9 9 11 11 11 9 11 10 10
Wind_Direction
186 189 189 187 190 192 202 192 189 179 163 168 178 184 187 186 186 197 232 207 200 214 231 220 211 242 281 298 280 261 254 260 274 290 303 316 275 243 254 264 275 266 255
187 186 191 188 188 192 199 194 184 181 180 182 188 193 199 195 190 195 219 222 206 210 223 231 229 230 218 243 274 282 275 265 257 274 284 282 271 249 233 232 261 272 274
189 189 191 193 193 197 197 190 186 185 191 193 194 199 209 206 194 199 209 226 226 219 220 225 230 236 237 234 239 260 272 274 259 263 272 266 263 258 248 248 257 261 272
189 191 193 197 198 199 197 192 192 190 195 200 197 202 206 212 206 204 207 217 227 231 230 230 232 234 234 233 242 241 249 262 269 265 264 264 258 250 235 242 263 256 262
189 192 194 194 196 198 196 193 193 195 202 201 203 205 207 212 216 210 211 217 215 226 233 233 236 235 235 233 246 244 252 253 262 266 269 271 266 267 262 258 269 271 263
188 194 194 191 194 199 197 194 192 196 202 197 202 209 212 221 215 206 204 228 222 223 231 236 244 238 231 229 235 240 240 247 256 264 272 271 274 277 276 273 273 278 278
192 198 192 192 197 199 200 197 197 196 201 205 205 210 218 219 208 199 205 219 239 247 245 242 251 254 236 226 228 233 240 241 238 243 257 262 269 274 280 279 270 269 271
181 189 187 191 198 198 202 200 199 198 201 208 212 216 221 220 202 196 200 216 236 245 250 251 249 256 261 253 248 241 233 235 233 233 240 247 250 252 253 257 260 266 264
154 172 187 196 191 190 198 201 196 195 199 204 211 216 222 223 204 199 193 218 237 245 248 250 249 251 251 249 250 254 256 252 247 238 226 231 236 242 243 253 258 262 268
75 87 90 133 189 192 193 196 199 198 204 210 218 220 226 228 208 201 198 222 240 248 249 249 250 250 254 250 246 249 253 255 258 263 248 241 242 245 238 233 241 250 258
57 62 61 53 58 95 156 170 188 209 216 226 235 235 230 228 214 205 202 218 237 251 258 261 258 258 253 254 248 250 254 260 266 264 262 255 246 242 238 230 226 231 241
49 61 57 52 43 11 178 188 204 218 223 231 241 246 244 237 231 215 208 216 235 250 262 272 280 294 284 272 261 256 257 261 265 265 263 261 257 252 243 235 226 222 226
42 45 51 49 39 24 19 354 255 245 248 248 248 255 261 261 236 216 215 223 234 243 261 272 285 293 294 281 263 258 259 258 257 259 259 259 256 255 252 249 240 231 228
34 30 32 43 26 35 38 3 338 319 303 304 308 305 304 307 342 11 249 240 242 249 262 276 281 279 274 268 269 264 253 249 249 253 257 258 257 254 252 250 249 243 241
32 27 12 11 16 26 12 354 355 18 22 296 319 323 318 320 340 358 333 305 301 298 298 282 276 274 270 266 262 258 256 252 248 248 253 257 258 259 258 257 257 256 253
19 10 358 357 0 333 313 302 291 268 227 225 227 239 257 243 246 263 267 265 265 267 277 273 274 273 273 273 272 270 265 260 257 257 256 255 257 258 258 256 257 259 259
6 358 349 349 344 334 333 322 303 254 238 245 245 244 247 258 263 267 269 276 277 258 257 269 270 271 272 273 273 274 275 275 271 268 266 264 262 262 261 259 257 256 258
342 344 330 331 333 321 311 305 298 293 284 267 246 241 250 257 262 266 273 291 281 259 261 267 272 276 279 282 286 290 291 290 286 284 282 277 272 268 264 258 256 257 258
330 330 338 331 314 304 305 306 304 305 307 306 307 281 248 256 262 267 267 260 272 282 287 288 291 296 298 297 297 297 296 294 292 289 284 281 280 276 271 264 261 260 257
309 303 304 303 299 303 310 312 312 315 312 309 309 317 322 302 293 289 276 271 281 291 297 302 305 307 308 303 299 296 293 290 290 288 286 283 280 277 274 271 269 265 260
320 317 305 299 306 314 317 316 315 311 311 314 316 322 326 313 304 301 305 304 301 303 307 307 306 306 304 302 303 302 302 302 300 299 296 292 288 285 281 277 274 272 271
318 316 316 319 323 325 324 317 312 312 316 318 320 319 316 309 308 309 311 309 307 307 311 311 309 307 308 310 313 313 312 311 310 307 303 301 300 296 291 287 284 279 273
319 320 323 324 325 324 319 322 324 325 325 324 324 323 322 320 320 318 315 315 317 315 313 314 310 305 306 308 309 307 308 310 312 310 309 307 304 298 294 287 282 281 275
319 323 326 328 330 330 331 332 331 329 326 324 325 324 325 325 320 318 316 316 317 315 314 312 309 308 311 313 310 310 317 322 317 309 309 304 300 297 293 287 282 278 276
323 329 330 330 331 334 336 336 336 335 333 331 329 330 328 323 319 318 319 317 316 316 316 314 310 310 310 310 313 315 320 317 311 310 307 300 295 292 290 288 286 285 282
334 338 338 338 339 339 337 335 333 333 332 332 330 328 324 322 321 321 319 317 318 316 314 310 308 312 315 317 320 324 321 314 307 303 298 291 289 288 289 287 289 286 285
Height
1515 1518 1522 1524 1527 1530 1532 1534 1536 1537 1539 1540 1541 1542 1543 1544 1545 1547 1548 1550 1550 1551 1552 1552 1553 1553 1554 1554 1555 1555 1555 1555 1555 1554 1554 1554 1552 1551 1550 1549 1548 1547 1546
1511 1515 1518 1521 1524 1526 1528 1530 1532 1534 1535 1536 1538 1539 1540 1542 1543 1544 1545 1547 1548 1548 1549 1550 1550 1551 1551 1552 1552 1552 1552 1552 1552 1550 1550 1549 1549 1548 1546 1545 1544 1543 1543
1508 1511 1515 1517 1520 1522 1524 1527 1528 1530 1531 1533 1534 1536 1537 1539 1540 1542 1543 1544 1545 1546 1547 1547 1548 1548 1548 1548 1548 1548 1549 1549 1548 1547 1546 1546 1545 1544 1543 1542 1541 1539 1539
1505 1508 1511 1513 1516 1518 1521 1523 1525 1526 1528 1529 1531 1532 1534 1536 1537 1538 1540 1541 1542 1543 1543 1544 1544 1544 1545 1545 1545 1545 1545 1544 1544 1543 1542 1541 1541 1540 1539 1538 1536 1536 1535
1502 1504 1507 1509 1513 1515 1517 1519 1520 1522 1524 1525 1527 1529 1530 1532 1533 1535 1536 1537 1538 1539 1539 1540 1540 1540 1540 1541 1541 1541 1540 1540 1539 1539 1538 1537 1536 1536 1535 1533 1532 1531 1530
1498 1500 1503 1505 1508 1510 1512 1514 1516 1517 1519 1521 1522 1524 1526 1528 1530 1531 1533 1534 1535 1535 1535 1536 1536 1536 1536 1536 1536 1536 1536 1535 1534 1534 1533 1532 1531 1531 1530 1529 1527 1526 1524
1494 1497 1500 1501 1503 1505 1507 1509 1511 1512 1515 1517 1518 1520 1521 1523 1525 1527 1528 1529 1530 1530 1530 1531 1531 1531 1532 1531 1530 1530 1529 1529 1529 1528 1526 1525 1525 1525 1524 1523 1522 1520 1518
1490 1493 1495 1497 1499 1501 1504 1505 1507 1508 1510 1512 1513 1515 1517 1518 1520 1521 1523 1524 1524 1525 1525 1525 1525 1525 1525 1526 1525 1524 1523 1522 1521 1521 1519 1518 1518 1518 1518 1517 1515 1513 1511
1486 1488 1491 1493 1496 1497 1499 1500 1502 1504 1504 1506 1508 1510 1512 1513 1515 1516 1518 1518 1518 1518 1519 1519 1519 1518 1519 1519 1518 1517 1516 1515 1515 1514 1512 1511 1511 1510 1510 1510 1508 1506 1503
1485 1486 1488 1490 1492 1494 1495 1497 1499 1500 1501 1502 1504 1506 1507 1509 1510 1511 1512 1512 1512 1512 1512 1512 1512 1512 1512 1512 1511 1510 1508 1507 1507 1506 1505 1504 1503 1502 1501 1501 1499 1498 1496
1484 1485 1486 1488 1489 1490 1491 1493 1495 1496 1497 1499 1500 1502 1503 1504 1504 1505 1506 1506 1506 1506 1506 1506 1506 1506 1505 1505 1504 1502 1500 1500 1499 1497 1496 1495 1494 1492 1491 1491 1490 1489 1487
1483 1484 1485 1486 1487 1488 1489 1490 1491 1493 1494 1495 1496 1498 1498 1499 1500 1500 1500 1500 1500 1499 1499 1499 1499 1499 1498 1497 1495 1494 1493 1492 1490 1488 1486 1485 1484 1483 1482 1482 1480 1478 1477
1483 1483 1483 1484 1485 1487 1487 1488 1489 1490 1491 1492 1493 1493 1494 1494 1494 1494 1494 1493 1493 1492 1492 1492 1491 1490 1489 1487 1486 1485 1484 1482 1480 1478 1475 1474 1474 1474 1473 1473 1471 1470 1468
1483 1483 1483 1484 1485 1486 1487 1487 1488 1488 1489 1489 1489 1490 1490 1490 1489 1488 1487 1487 1486 1485 1484 1484 1483 1481 1480 1478 1476 1475 1473 1472 1470 1468 1466 1465 1464 1464 1463 1463 1462 1461 1459
1485 1485 1485 1485 1485 1485 1485 1485 1486 1486 1486 1487 1486 1487 1487 1485 1484 1483 1483 1482 1481 1480 1478 1476 1474 1472 1470 1468 1467 1465 1464 1463 1461 1459 1457 1455 1455 1454 1453 1453 1452 1451 1449
1486 1486 1486 1486 1486 1486 1485 1484 1484 1484 1484 1484 1483 1483 1482 1481 1480 1479 1478 1477 1475 1473 1471 1469 1467 1465 1463 1461 1459 1458 1456 1454 1453 1451 1449 1447 1445 1444 1442 1442 1441 1440 1439
1488 1488 1487 1487 1487 1486 1485 1484 1483 1483 1482 1482 1481 1479 1479 1477 1476 1474 1473 1471 1469 1467 1464 1462 1460 1458 1456 1454 1452 1450 1448 1446 1445 1443 1440 1438 1436 1435 1433 1432 1431 1430 1428
1490 1489 1488 1487 1486 1485 1484 1483 1482 1481 1480 1479 1478 1476 1475 1473 1471 1470 1468 1466 1463 1462 1459 1457 1454 1452 1450 1448 1445 1443 1441 1438 1436 1434 1432 1430 1428 1426 1424 1423 1421 1420 1419
1490 1489 1488 1487 1485 1484 1483 1482 1481 1479 1478 1476 1475 1473 1471 1469 1467 1466 1464 1461 1458 1457 1455 1452 1449 1447 1444 1441 1439 1436 1433 1431 1429 1427 1424 1422 1420 1418 1416 1414 1413 1411 1410
1490 1489 1487 1485 1484 1483 1481 1480 1478 1477 1475 1473 1472 1470 1467 1465 1463 1461 1459 1457 1454 1452 1449 1447 1444 1441 1438 1435 1432 1429 1426 1424 1421 1419 1416 1413 1411 1409 1407 1405 1404 1402 1401
1489 1487 1485 1484 1482 1480 1479 1477 1475 1474 1472 1470 1468 1466 1464 1461 1459 1457 1454 1452 1449 1446 1443 1441 1438 1435 1432 1429 1426 1423 1420 1417 1414 1411 1408 1405 1403 1401 1399 1397 1395 1394 1393
1487 1485 1484 1482 1480 1478 1475 1474 1472 1470 1468 1466 1463 1461 1459 1457 1454 1452 1449 1446 1444 1441 1438 1435 1431 1429 1426 1423 1420 1417 1414 1410 1407 1404 1401 1398 1396 1394 1391 1389 1387 1386 1385
1485 1483 1481 1479 1476 1474 1472 1470 1468 1466 1463 1461 1459 1457 1454 1452 1449 1446 1443 1440 1437 1434 1431 1428 1425 1423 1420 1417 1414 1411 1408 1404 1401 1398 1394 1392 1389 1387 1385 1382 1381 1379 1378
1482 1480 1478 1476 1473 1471 1469 1466 1464 1462 1460 1457 1454 1452 1449 1446 1443 1441 1438 1434 1431 1429 1426 1423 1419 1416 1413 1410 1407 1404 1401 1397 1394 1391 1388 1386 1383 1381 1378 1376 1374 1373 1372
1479 1477 1475 1473 1470 1468 1465 1463 1461 1458 1456 1453 1450 1447 1444 1441 1438 1435 1432 1429 1426 1423 1420 1417 1413 1410 1406 1403 1400 1397 1394 1391 1388 1385 1382 1379 1377 1374 1372 1370 1369 1367 1366
1476 1474 1472 1470 1467 1465 1462 1460 1457 1454 1452 1449 1446 1443 1439 1436 1433 1430 1427 1424 1420 1417 1414 1410 1407 1404 1400 1396 1393 1390 1387 1384 1381 1378 1376 1373 1370 1368 1367 1365 1363 1362 1361